Temperature
21 21 20 20 20 20 20 19 20 20 20 19 19 19 19 19 19 19 18 18 18 18 18 18 18 18 17 17 17 17 17 17 16 16 16 16 16 15 15 15 15 15 15
21 21 21 21 20 20 20 20 20 20 20 19 19 19 19 19 18 18 18 18 18 18 18 17 17 17 17 17 17 17 17 16 16 16 16 16 16 15 15 15 14 14 14
21 21 21 21 20 20 20 20 20 20 20 19 19 19 19 18 18 18 18 18 18 18 17 17 17 17 17 17 17 16 16 16 16 16 16 15 15 15 15 14 14 14 14
21 21 21 21 20 20 20 20 20 20 20 19 19 19 19 18 18 18 18 18 17 17 17 17 17 17 16 16 16 16 16 16 16 16 15 15 15 15 15 14 14 14 14
21 21 21 21 21 20 20 20 20 20 19 19 19 19 19 18 18 18 18 18 17 17 17 17 17 17 16 16 16 16 16 15 15 15 15 15 15 15 14 14 14 14 14
21 21 21 21 20 20 20 20 20 20 20 19 19 19 19 18 18 18 18 17 17 17 17 17 16 16 16 16 16 16 15 15 15 15 15 15 14 14 14 14 14 14 14
20 20 20 20 20 20 20 20 19 19 19 19 19 19 19 19 18 18 18 17 17 16 16 16 16 16 16 16 15 15 15 15 15 15 14 14 14 14 14 14 13 13 13
20 20 20 20 20 20 20 19 19 19 19 19 19 18 18 18 18 18 18 17 16 16 16 16 16 16 15 15 15 15 15 14 14 14 14 14 14 14 13 13 13 13 13
20 20 20 20 20 20 20 19 19 19 19 19 18 18 18 18 18 18 17 16 16 16 16 16 16 15 15 15 15 14 14 14 14 14 14 14 13 13 13 13 13 13 13
19 20 20 20 20 20 19 19 19 19 18 18 18 18 18 17 17 17 17 16 16 16 15 15 15 15 15 15 14 14 14 14 14 13 13 13 13 13 13 13 13 13 13
19 19 19 19 19 19 19 19 18 18 18 18 18 17 17 17 17 17 16 16 16 15 15 15 14 15 15 14 14 14 14 14 13 13 13 13 13 12 12 12 12 12 13
18 18 18 18 18 18 18 18 18 17 17 17 17 16 16 16 16 16 16 16 15 15 14 14 14 14 14 14 14 14 14 13 13 13 13 13 12 12 12 12 12 12 12
18 17 17 17 17 17 17 17 17 17 16 16 16 16 16 15 15 16 16 15 15 15 14 14 14 14 14 13 13 13 13 13 13 13 12 12 12 12 12 12 12 12 12
17 17 17 17 17 17 16 16 16 16 16 16 16 15 15 15 15 15 15 15 14 14 14 14 14 13 13 13 13 13 13 13 12 12 12 12 12 12 12 12 12 12 12
16 16 16 16 16 16 16 16 15 15 15 15 15 15 15 15 15 15 14 14 14 14 13 13 13 13 13 13 12 12 12 12 12 12 12 12 12 12 12 11 11 11 11
16 15 16 15 15 15 15 15 15 15 15 14 14 14 14 14 14 14 14 14 14 13 13 13 13 13 12 12 12 12 12 12 11 11 11 11 11 11 11 11 11 11 11
15 15 15 15 15 15 14 14 14 14 14 14 14 14 14 14 14 14 13 13 13 13 13 12 12 12 12 12 12 12 11 11 11 11 11 11 11 11 11 11 11 11 11
15 15 14 14 14 14 14 14 14 14 14 14 14 13 13 13 13 13 13 13 12 12 12 12 12 12 11 11 11 11 11 11 11 10 10 10 10 10 10 10 10 10 10
14 14 14 14 14 14 14 14 14 13 13 13 13 13 13 13 12 12 12 12 12 12 12 12 11 11 11 11 10 10 10 10 10 10 10 10 10 10 10 10 10 10 10
14 14 14 13 13 13 13 13 13 13 13 13 12 13 12 12 12 12 12 11 11 11 11 11 11 10 10 10 10 10 10 10 9 9 9 9 9 9 9 9 9 10 10
13 13 13 13 13 13 13 13 13 13 12 12 12 12 12 12 12 11 11 11 11 10 10 10 10 10 10 9 9 9 9 9 9 9 9 9 9 9 9 9 9 9 9
13 13 13 12 12 12 12 12 12 12 12 12 11 11 11 11 11 11 11 10 10 10 10 9 9 9 9 9 9 9 9 9 9 8 8 8 8 9 9 9 9 9 9
12 12 12 12 12 12 12 12 11 11 11 11 11 10 10 10 10 10 10 10 9 9 9 9 9 9 9 8 8 8 8 8 8 8 8 8 8 8 8 8 8 9 9
12 12 12 11 11 11 11 11 11 10 10 10 10 10 10 9 9 9 9 9 9 9 8 8 8 8 8 8 8 8 8 8 8 7 7 7 7 8 8 8 8 8 8
12 11 11 11 11 10 10 10 10 10 10 9 9 9 9 9 9 8 8 8 8 8 8 8 8 7 7 7 7 7 7 7 7 7 7 7 7 7 7 7 8 8 8
11 11 11 10 10 10 10 9 9 9 9 9 9 9 8 8 8 8 8 7 7 7 7 7 7 7 7 7 7 7 7 7 7 7 7 7 7 7 7 7 7 7 7
Wind_Speed
11 10 9 9 8 8 7 7 6 6 7 7 6 6 6 5 5 5 5 5 5 4 4 5 5 5 5 5 4 5 5 5 6 4 3 2 3 4 3 4 5 5 5
10 10 9 9 8 8 8 7 7 7 7 7 6 6 6 6 5 5 5 5 5 5 5 4 5 4 5 5 5 6 6 6 6 6 4 4 4 5 4 5 4 5 4
11 10 10 9 9 8 8 7 7 6 7 6 6 6 6 5 5 5 5 5 5 5 5 4 4 5 5 5 5 6 6 6 6 6 5 3 4 4 4 5 5 4 4
10 10 10 10 9 8 8 7 7 6 6 6 6 6 5 5 5 5 6 6 5 5 5 4 4 5 5 5 5 6 6 6 6 6 5 4 4 4 4 5 4 5 4
10 11 10 9 8 8 7 7 6 6 7 6 6 6 6 5 5 5 5 6 5 5 5 5 4 3 2 3 4 4 5 5 5 5 5 4 4 3 4 4 4 4 4
10 10 9 9 8 8 7 7 7 7 6 6 6 6 6 5 3 3 5 5 5 5 5 5 5 4 4 5 4 4 4 5 5 5 5 5 5 5 4 5 4 4 4
8 8 7 7 7 7 7 7 7 6 6 6 6 6 6 4 4 4 5 6 6 5 5 5 4 3 4 4 5 7 6 6 6 6 7 6 6 5 5 6 6 6 5
7 7 7 7 7 6 6 6 6 5 6 6 6 6 5 4 5 5 6 7 6 5 5 5 5 4 3 4 5 5 5 5 6 6 6 6 5 4 5 7 6 6 6
7 7 7 7 7 7 6 6 5 5 5 5 5 5 5 4 5 6 6 5 5 6 5 4 4 4 3 4 5 6 6 5 6 6 6 6 5 4 5 5 5 6 6
6 6 6 6 7 7 6 6 5 5 5 5 5 5 5 4 4 5 6 5 5 5 4 4 3 4 3 4 6 6 6 6 5 5 6 7 7 7 8 7 7 7 7
5 5 5 5 6 6 5 5 5 5 5 5 4 3 4 4 4 5 5 5 5 5 4 4 3 4 4 5 7 6 6 6 6 6 5 5 5 5 6 6 6 7 7
4 4 4 5 5 4 5 5 5 5 5 5 4 4 3 3 3 4 4 5 5 5 4 3 1 3 5 6 5 5 7 7 6 5 5 5 5 5 5 6 6 7 7
4 4 4 4 4 4 5 5 5 5 5 5 5 4 3 3 3 5 6 5 5 4 3 2 2 4 5 5 6 7 7 5 6 6 6 6 6 5 5 5 6 6 7
4 3 3 4 3 3 3 4 4 4 5 5 5 4 4 3 3 3 3 3 4 4 3 2 4 6 6 4 5 5 5 5 5 6 6 6 5 5 5 5 5 5 6
4 4 4 4 4 3 2 1 3 2 2 4 4 4 3 4 1 1 2 2 3 2 3 3 3 3 4 3 4 4 4 4 5 6 6 6 5 5 5 5 5 5 6
4 4 4 4 3 3 3 2 6 2 3 1 1 2 1 2 3 2 2 2 1 2 3 3 4 4 4 4 4 4 4 4 5 5 6 6 5 5 5 5 6 6 7
4 4 3 4 4 4 3 3 2 2 3 2 1 2 2 3 3 2 1 1 2 4 4 4 4 4 4 4 4 4 4 4 4 5 5 5 5 5 5 6 6 7 7
4 4 4 4 3 3 4 4 3 3 2 1 1 4 5 5 4 4 3 3 2 3 3 3 3 3 4 4 4 4 4 4 4 4 5 5 5 5 5 6 6 7 7
4 3 3 3 3 3 3 3 3 3 3 2 2 3 5 6 6 5 5 3 3 3 3 3 4 3 3 3 4 4 4 4 4 4 5 5 5 5 6 6 6 6 7
2 2 2 3 3 3 3 3 3 3 3 4 3 2 2 3 2 3 3 3 3 3 3 3 3 3 3 3 4 4 4 4 4 5 5 5 5 5 6 7 6 6 6
1 2 3 3 2 2 2 2 3 3 3 3 3 1 1 3 2 2 2 2 2 3 3 3 3 3 3 3 3 4 5 4 4 5 5 5 5 5 5 5 6 6 5
2 2 2 2 2 2 2 2 2 2 2 3 1 2 3 3 2 2 2 2 2 3 3 3 4 4 3 3 3 4 4 5 5 5 5 5 5 5 5 6 5 5 6
2 2 2 2 2 2 2 2 2 2 2 1 1 1 1 1 1 1 2 2 2 2 3 3 4 4 3 3 3 4 4 4 5 6 6 6 6 6 6 6 6 7 6
1 2 2 2 2 2 2 1 1 1 1 0 0 0 0 1 1 2 2 2 3 3 3 3 4 4 5 4 4 4 4 5 7 6 7 7 7 7 7 7 7 7 7
1 1 1 1 2 2 1 1 1 0 0 0 1 1 1 1 1 2 2 2 3 3 4 4 4 4 5 6 5 5 7 8 7 7 7 6 7 8 8 8 7 8 7
2 2 2 2 2 1 1 1 0 0 0 0 1 1 1 2 2 2 2 2 3 3 3 4 5 6 6 5 5 6 6 6 7 8 7 6 7 7 8 7 8 7 8
Wind_Direction
192 193 196 197 202 207 213 216 216 217 212 213 215 217 218 218 215 215 229 225 229 235 239 240 249 265 265 259 251 251 250 253 259 263 253 230 221 245 218 225 224 221 196
189 189 193 197 202 207 210 214 213 213 213 213 215 217 220 218 215 216 225 226 230 234 241 247 254 251 251 261 257 253 249 246 252 259 255 246 235 232 225 235 237 234 225
185 187 190 197 200 204 208 208 209 210 212 213 214 220 223 221 219 220 226 231 233 237 242 243 252 253 254 257 258 259 256 251 249 255 254 249 250 234 225 232 236 242 234
189 191 194 199 202 203 203 204 205 206 206 208 208 214 220 225 227 230 230 234 238 241 248 248 250 251 255 257 254 255 259 259 252 252 253 248 244 228 227 234 228 221 230
192 196 198 198 199 201 201 205 204 204 204 202 205 210 216 220 226 228 229 229 233 239 244 244 245 242 260 266 269 266 261 258 257 254 253 252 246 236 239 244 245 236 223
195 200 197 195 196 197 198 201 202 203 202 201 207 212 215 219 193 212 237 235 237 239 244 245 238 221 212 209 233 261 266 253 259 262 259 259 256 254 252 252 248 243 246
191 196 195 192 194 198 200 200 206 206 201 203 209 213 217 218 192 191 217 235 241 245 248 251 254 236 218 234 222 219 228 232 239 250 260 264 265 259 255 251 245 249 260
187 190 189 186 186 192 196 201 207 207 205 206 208 212 217 216 185 192 214 228 244 247 246 245 247 261 249 250 250 242 244 238 234 240 256 260 263 270 251 249 253 249 246
185 187 190 190 190 193 194 200 203 203 205 204 205 206 211 212 191 199 217 227 233 243 243 242 244 245 259 244 243 248 252 250 230 223 244 252 253 248 252 252 245 247 251
187 191 195 197 197 199 199 199 199 200 205 205 205 208 210 213 196 196 217 226 229 237 234 231 220 238 258 230 236 245 251 258 259 241 236 236 237 225 214 231 244 247 256
194 196 200 204 204 201 197 195 198 203 206 209 206 210 212 213 192 187 213 228 234 238 242 245 234 190 226 237 241 244 254 265 260 250 245 243 239 237 232 229 240 248 256
189 193 194 195 205 197 198 199 199 200 204 209 210 218 214 211 201 188 200 231 264 242 255 268 271 176 213 230 236 251 258 259 256 254 253 251 248 250 247 242 237 244 254
179 189 187 188 191 193 199 200 199 200 209 214 215 219 215 203 188 179 190 214 247 248 267 338 305 224 223 225 222 235 244 245 249 252 254 256 255 257 255 244 239 240 245
183 187 185 189 187 183 195 199 201 204 210 214 218 223 219 213 210 199 202 203 212 232 253 232 221 230 234 244 234 227 234 244 250 254 259 263 260 256 251 248 251 243 247
192 194 194 193 180 176 183 195 212 214 240 236 231 229 231 227 212 33 256 236 243 240 243 242 246 246 248 246 245 245 246 240 243 253 257 260 257 256 256 248 248 251 255
203 207 208 201 183 181 165 109 46 53 69 48 308 257 217 118 118 94 44 16 344 258 246 251 255 259 264 268 264 259 250 251 254 252 252 257 259 256 256 251 247 248 252
215 217 216 205 191 188 189 187 173 80 75 87 145 157 157 145 144 153 150 269 239 225 239 261 271 275 278 278 278 278 274 267 266 265 260 260 261 260 258 260 254 249 253
218 209 210 211 204 195 202 209 205 196 193 199 156 154 160 166 176 183 186 200 233 234 258 269 274 276 280 282 281 282 286 284 276 271 267 267 267 265 263 262 262 261 259
221 212 211 212 211 208 210 212 211 203 201 207 212 181 169 176 187 200 206 235 248 256 265 270 272 271 275 276 277 278 278 283 282 274 270 268 267 267 267 268 268 264 261
209 172 198 208 207 202 209 212 211 204 203 213 220 210 182 196 211 208 214 237 256 267 272 274 278 279 276 274 271 274 276 274 272 269 271 269 268 268 269 271 274 273 268
183 180 184 199 203 205 207 214 212 212 210 216 220 195 209 231 237 237 242 242 258 269 275 278 276 273 274 276 275 275 277 278 279 281 281 279 277 275 274 273 273 272 274
174 196 200 200 201 197 201 218 218 213 210 220 217 180 200 238 242 243 253 262 275 282 286 282 281 282 283 281 279 282 285 290 293 293 290 285 280 276 276 275 275 276 277
180 201 209 207 207 179 191 217 215 211 215 206 202 199 208 259 278 284 291 306 306 302 300 293 292 292 298 301 298 293 296 305 307 308 302 293 288 281 277 275 272 275 273
174 189 192 187 190 188 179 186 192 208 227 190 197 237 254 294 307 318 324 332 332 329 322 309 301 300 304 305 304 306 331 334 319 304 296 291 287 284 280 279 278 278 277
130 145 161 152 152 157 146 153 167 136 7 47 54 5 340 334 333 334 337 336 329 326 327 325 319 311 311 313 318 332 358 353 335 319 300 287 283 282 281 280 279 279 277
100 103 108 105 106 112 122 179 167 92 336 344 353 18 1 352 357 354 344 334 326 320 314 315 319 321 318 318 333 351 353 338 325 315 302 287 286 288 289 284 284 283 282
Height
1517 1519 1521 1523 1525 1526 1527 1528 1529 1530 1531 1531 1532 1533 1533 1534 1534 1534 1534 1534 1534 1534 1533 1533 1533 1532 1533 1533 1532 1532 1532 1532 1531 1530 1530 1529 1528 1527 1527 1526 1525 1524 1524
1514 1516 1518 1520 1522 1523 1524 1525 1526 1527 1528 1529 1530 1530 1531 1531 1532 1532 1532 1532 1531 1531 1530 1530 1530 1529 1529 1529 1529 1529 1528 1528 1528 1527 1526 1526 1525 1524 1523 1523 1523 1522 1521
1512 1514 1516 1517 1519 1520 1521 1522 1523 1524 1525 1526 1527 1528 1528 1529 1529 1529 1529 1529 1528 1528 1527 1527 1526 1526 1525 1525 1525 1525 1526 1525 1525 1524 1523 1523 1522 1521 1520 1520 1520 1519 1519
1509 1511 1512 1514 1515 1517 1518 1519 1520 1521 1522 1523 1524 1525 1525 1526 1526 1526 1526 1525 1525 1525 1524 1523 1523 1522 1522 1522 1522 1521 1522 1522 1521 1521 1520 1520 1519 1518 1517 1517 1517 1516 1516
1505 1507 1509 1510 1512 1514 1515 1516 1517 1518 1519 1520 1521 1521 1522 1522 1522 1522 1522 1522 1522 1521 1521 1520 1519 1519 1518 1518 1519 1518 1518 1518 1518 1518 1517 1516 1516 1515 1515 1515 1514 1514 1513
1501 1504 1505 1507 1509 1510 1512 1513 1515 1515 1516 1517 1518 1518 1518 1519 1519 1519 1519 1519 1518 1518 1517 1517 1516 1516 1515 1515 1514 1514 1514 1514 1514 1514 1514 1513 1512 1513 1512 1512 1512 1511 1511
1498 1500 1502 1503 1505 1507 1509 1510 1511 1512 1513 1513 1514 1515 1515 1515 1515 1515 1515 1515 1515 1514 1514 1513 1513 1513 1512 1511 1511 1511 1510 1510 1510 1510 1509 1509 1509 1509 1508 1508 1508 1507 1507
1495 1497 1498 1500 1501 1503 1505 1506 1508 1509 1509 1510 1511 1511 1512 1511 1511 1512 1511 1511 1511 1511 1510 1510 1509 1509 1509 1508 1508 1507 1507 1506 1506 1506 1505 1505 1504 1504 1504 1504 1504 1504 1503
1492 1493 1495 1496 1498 1499 1500 1502 1504 1505 1506 1506 1507 1507 1508 1508 1508 1508 1508 1508 1507 1507 1507 1506 1506 1505 1505 1505 1504 1504 1503 1503 1502 1502 1501 1501 1500 1500 1500 1500 1500 1500 1500
1488 1489 1491 1492 1494 1495 1496 1498 1500 1502 1502 1503 1503 1504 1504 1504 1504 1504 1504 1505 1504 1503 1503 1503 1502 1501 1501 1501 1500 1500 1499 1499 1499 1498 1497 1497 1496 1496 1495 1496 1496 1496 1496
1485 1487 1488 1489 1490 1491 1493 1494 1496 1498 1499 1499 1499 1500 1500 1501 1501 1501 1501 1501 1501 1500 1500 1500 1499 1497 1497 1496 1496 1496 1496 1496 1495 1495 1494 1494 1493 1492 1492 1491 1491 1492 1492
1482 1484 1485 1486 1487 1488 1490 1491 1493 1494 1495 1495 1496 1496 1496 1497 1497 1496 1497 1497 1497 1497 1496 1496 1495 1494 1493 1492 1492 1492 1492 1492 1492 1492 1491 1490 1489 1489 1488 1487 1487 1487 1486
1480 1481 1482 1483 1484 1485 1487 1488 1489 1490 1491 1492 1493 1493 1493 1493 1493 1493 1493 1493 1493 1493 1493 1492 1491 1491 1490 1489 1488 1488 1488 1488 1488 1487 1487 1486 1486 1485 1484 1483 1482 1481 1481
1477 1478 1479 1480 1481 1482 1483 1484 1485 1486 1487 1489 1489 1490 1490 1490 1490 1490 1490 1490 1490 1489 1489 1489 1488 1487 1487 1486 1485 1484 1484 1483 1483 1483 1482 1482 1481 1480 1479 1479 1478 1477 1477
1474 1475 1476 1477 1478 1479 1480 1480 1482 1483 1484 1485 1486 1486 1486 1487 1486 1487 1487 1487 1487 1487 1486 1485 1485 1485 1484 1483 1482 1481 1480 1479 1478 1478 1478 1477 1476 1476 1475 1474 1473 1473 1472
1472 1473 1473 1474 1474 1475 1476 1477 1478 1479 1480 1481 1482 1482 1482 1483 1483 1483 1483 1483 1483 1483 1483 1482 1482 1481 1481 1480 1479 1478 1477 1476 1475 1474 1473 1473 1472 1471 1471 1470 1469 1469 1468
1469 1470 1471 1471 1472 1472 1473 1475 1475 1476 1477 1478 1478 1478 1478 1479 1479 1479 1479 1480 1480 1479 1479 1479 1479 1478 1477 1476 1475 1474 1473 1472 1471 1470 1469 1469 1468 1467 1467 1466 1465 1464 1464
1466 1467 1468 1468 1469 1470 1471 1472 1473 1473 1473 1474 1474 1475 1475 1475 1476 1475 1476 1476 1476 1476 1476 1475 1475 1474 1473 1472 1471 1471 1469 1468 1467 1466 1465 1464 1464 1463 1462 1461 1461 1460 1459
1463 1464 1465 1465 1466 1467 1468 1469 1470 1470 1471 1471 1471 1472 1472 1472 1472 1472 1472 1473 1473 1473 1473 1472 1471 1470 1469 1469 1468 1467 1466 1464 1463 1462 1461 1460 1460 1459 1458 1457 1457 1455 1455
1460 1461 1462 1463 1464 1464 1465 1466 1467 1467 1468 1469 1469 1469 1468 1469 1469 1469 1469 1469 1469 1469 1469 1468 1467 1466 1465 1464 1464 1463 1462 1460 1459 1459 1458 1457 1456 1455 1454 1453 1452 1451 1450
1458 1459 1460 1461 1462 1462 1463 1463 1464 1465 1465 1466 1466 1465 1465 1466 1466 1466 1467 1466 1466 1466 1466 1465 1464 1463 1462 1460 1460 1459 1458 1457 1456 1455 1455 1453 1452 1451 1450 1449 1448 1447 1447
1456 1458 1459 1459 1459 1460 1461 1462 1462 1462 1463 1463 1462 1462 1462 1464 1464 1464 1464 1463 1463 1463 1462 1461 1461 1460 1458 1457 1456 1455 1454 1453 1452 1452 1451 1449 1448 1447 1447 1446 1444 1443 1443
1455 1456 1457 1457 1457 1457 1458 1459 1460 1460 1460 1460 1460 1460 1460 1460 1461 1462 1461 1460 1460 1459 1458 1457 1457 1456 1455 1453 1452 1451 1450 1449 1448 1447 1446 1445 1444 1443 1442 1441 1440 1439 1438
1453 1453 1454 1454 1455 1455 1455 1456 1457 1457 1457 1457 1457 1457 1457 1458 1458 1458 1458 1457 1456 1455 1454 1453 1452 1451 1450 1449 1448 1447 1446 1445 1443 1442 1442 1441 1440 1439 1439 1438 1436 1435 1435
1452 1452 1452 1452 1452 1453 1453 1454 1454 1455 1455 1455 1454 1455 1455 1455 1455 1455 1454 1453 1453 1452 1451 1449 1448 1447 1446 1444 1443 1442 1441 1440 1439 1438 1437 1436 1435 1435 1434 1433 1432 1431 1430
1451 1451 1451 1451 1451 1451 1452 1452 1452 1452 1453 1453 1453 1453 1453 1453 1452 1452 1451 1451 1450 1448 1447 1446 1444 1443 1442 1441 1439 1438 1436 1435 1434 1433 1432 1431 1431 1430 1429 1429 1428 1427 1426